Grand Forks International Airport
KGFK : now visible

Airfield :











YOU CAN JOIN US ON...

 
LOGIN :

Register | Disclaimer

   EN    FR    IT 

 









Legend :    VFR   Marginal VFR   IFR   Intensive IFR   Very Intensive IFR
Visi :
Ceiling :
>= 8 km
>= 3000ft
5 to 8 km
1000 to 3000 ft
1500m to 5 km
500 to 1000 ft
800 to 1500m
200 to 500 ft
< 800m
< 200 ft
Symbols :   Thunderstorms  Fog  Heavy snow  Heavy precipitations  Wind > 20 kt






- Airport Elevation : 845 ft
- IATA code : GFK


KGFK - Grand Forks International

CURRENT METAR :
  • 241153Z 28004KT 10SM CLR M08/M11 A3034 RMK AO2 SLP292 T10831111 11072 21083 53006

EXPIRED METARs :
  • 241053Z 28003KT 10SM CLR M08/M11 A3033 RMK AO2 SLP288 T10781106
  • 240953Z AUTO 28005KT 10SM CLR M08/M11 A3033 RMK AO2 SLP286 T10781106

TAF KGFK
Valid from the 24 at 12:00 until the 25 at 12:00 UTC


241126Z 2412/2512 VRB05KT P6SM FEW200
FM241900 VRB05KT P6SM BKN150
KZMP FIR / North America



MET'MAP, your aeronautical weather chart ! - Copyright ORBIFLY December 2007 - Disclaimer

ORBIFLY MET'MAP TEAM :

Programming & Development : Alexandra Zaïnal
Concept & original design : Baudouin d'Aumeries
Assistance for programming : Marc-Olivier Méhu
Technical & hardware support : Manuel Goepfert

Contact : metmap@orbifly.com




SOURCES & CREDITS :

   NOAA       Earth
Advisory